Location: Banksville Park
(38.5557°N, 75.1182°W)
Time: 16:48:30
(UTC+00:00)

PSLV R/B - Pass Details

Date: 19 September 2020
Orbit: 594 x 629 km, 97.9° (Epoch: 31 October)

Event Time Altitude Azimuth Distance (km) Brightness Sun altitude
Rises 08:56:50 0° 12° (NNE) 2,850 7.4 -21.7°
Reaches altitude 10° 08:59:00 10° 13° (NNE) 1,940 6.5 -21.3°
Maximum altitude 09:03:13 88° 103° (ESE) 600 3.4 -20.5°
Enters shadow 09:05:08 32° 192° (SSW) 1,033 4.4 -20.2°
